Weather History for KPHL - April, 2014

Change the Weather History Date:

Thursday, April 10, 2014

  Actual Average Record
Temperature  
Mean Temperature 54 °F 52 °F  
Max Temperature 68 °F 62 °F 89 °F (2013)
Min Temperature 40 °F 42 °F 22 °F (1985)
Degree Days  
Heating Degree Days 11 13  
Month to date heating degree days 139 146  
Since 1 July heating degree days 4596 4293  
Cooling Degree Days 0 0  
Month to date cooling degree days 0 0  
Year to date cooling degree days 0 1  
Growing Degree Days 4 (Base 50)    
Moisture  
Dew Point 29 °F    
Average Humidity 42    
Maximum Humidity 59    
Minimum Humidity 24    
Precipitation  
Precipitation 0.00 in 0.13 in 1.78 in (1983)
Month to date precipitation 0.62 1.27  
Year to date precipitation 13.52 10.74  
Snow  
Snow 0.00 in 0.10 in 0.70 in (1894)
Month to date snowfall 0.0 0.3  
Since 1 July snowfall 68.0 22.2  
Snow Depth 0.00 in    
Sea Level Pressure  
Sea Level Pressure 30.13 in    
Wind  
Wind Speed 10 mph (South)    
Max Wind Speed 24 mph    
Max Gust Speed 32 mph    
Visibility 10 miles    
Events      
T = Trace of Precipitation, MM = Missing Value Source: NWS Daily Summary

Daily Weather History Graph

Daily Weather History Graph

Search for Another Location

Airport or City:

Trip Planner

Search our weather history database for the weather conditions in past years. The results will help you decide how hot, cold, wet, or windy it might be!

Date:

Astronomy

Apr. 10, 2014 Rise Set
Actual Time 6:30 AM EDT 7:34 PM EDT
Civil Twilight 6:03 AM EDT 8:01 PM EDT
Nautical Twilight 5:30 AM EDT 8:34 PM EDT
Astronomical Twilight 4:55 AM EDT 9:09 PM EDT
Moon 3:16 PM EDT (4/10) 3:52 AM EDT (4/10)
Length of Visible Light 13h 58m
Length of Day
13h 03m
Waxing Gibbous, 79% of the Moon is Illuminated
Apr 10
Waxing Gibbous
Apr 15
Full
Apr 22
Last Quarter
Apr 29
New
May 6
First Quarter

Hourly Weather History & Observations

Time (EDT) Temp. Windchill Dew Point Humidity Pressure Visibility Wind Dir Wind Speed Gust Speed Precip Events Conditions
12:54 AM 51.1 °F - 25.0 °F 36% 30.07 in 10.0 mi North 8.1 mph - N/A   Clear
1:54 AM 48.0 °F - 25.0 °F 41% 30.09 in 10.0 mi NNE 3.5 mph - N/A   Clear
2:54 AM 46.9 °F - 27.0 °F 46% 30.11 in 10.0 mi ENE 5.8 mph - N/A   Clear
3:54 AM 44.1 °F - 30.0 °F 58% 30.12 in 10.0 mi Calm Calm - N/A   Clear
4:54 AM 43.0 °F 39.5 °F 28.0 °F 56% 30.14 in 10.0 mi SE 5.8 mph - N/A   Clear
5:54 AM 42.1 °F - 28.0 °F 58% 30.16 in 10.0 mi Calm Calm - N/A   Clear
6:54 AM 39.9 °F - 27.0 °F 60% 30.18 in 10.0 mi Calm Calm - N/A   Clear
7:54 AM 45.0 °F - 27.0 °F 49% 30.21 in 10.0 mi Calm Calm - N/A   Clear
8:54 AM 50.0 °F - 28.9 °F 44% 30.23 in 10.0 mi SSW 9.2 mph - N/A   Clear
9:54 AM 53.1 °F - 28.9 °F 40% 30.24 in 10.0 mi South 11.5 mph - N/A   Clear
10:54 AM 55.9 °F - 28.0 °F 34% 30.25 in 10.0 mi SSW 12.7 mph - N/A   Clear
11:54 AM 60.1 °F - 27.0 °F 28% 30.22 in 10.0 mi SSW 11.5 mph 20.7 mph N/A   Clear
12:54 PM 62.1 °F - 28.0 °F 28% 30.18 in 10.0 mi South 11.5 mph - N/A   Clear
1:54 PM 64.9 °F - 27.0 °F 24% 30.16 in 10.0 mi SSW 15.0 mph - N/A   Clear
2:54 PM 66.9 °F - 28.9 °F 24% 30.13 in 10.0 mi SW 15.0 mph 26.5 mph N/A   Clear
3:54 PM 68.0 °F - 30.0 °F 24% 30.11 in 10.0 mi SW 19.6 mph 26.5 mph N/A   Scattered Clouds
4:54 PM 66.0 °F - 30.9 °F 27% 30.09 in 10.0 mi South 15.0 mph - N/A   Scattered Clouds
5:54 PM 64.0 °F - 32.0 °F 30% 30.08 in 10.0 mi South 15.0 mph - N/A   Mostly Cloudy
6:54 PM 62.1 °F - 30.9 °F 31% 30.08 in 10.0 mi South 13.8 mph 24.2 mph N/A   Scattered Clouds
7:54 PM 59.0 °F - 30.9 °F 35% 30.07 in 10.0 mi SSE 9.2 mph - N/A   Scattered Clouds
8:54 PM 57.9 °F - 34.0 °F 41% 30.08 in 10.0 mi South 10.4 mph - N/A   Scattered Clouds
9:54 PM 57.0 °F - 33.1 °F 40% 30.06 in 10.0 mi South 13.8 mph - N/A   Scattered Clouds
10:54 PM 57.0 °F - 30.9 °F 37% 30.05 in 10.0 mi SSW 17.3 mph - N/A   Scattered Clouds
11:54 PM 55.9 °F - 32.0 °F 40% 30.05 in 10.0 mi SSW 12.7 mph - N/A   Partly Cloudy